STERKH 2

Satellite information

Favourite Embed

Satellite Type and Status

PAYLOADIN ORBIT

Key statistics

Satellite STERKH 2 at a glance.

Uptime

5873

Days in orbit

Revolutions

≈ 14.2

Per day

Orbit

SSO

Sun Synchronous Orbit

Inclination

98.7

Latest

Satellite identification and parameters

Extended collection of information and parameters for STERKH 2.

Object identification

Identified? True

Debris? False

Object name: STERKH 2

International designator: 2009-049B

Object number (NORAD): 35866

Object ID (CCSDS): 35866

Country: COMMONWEALTH OF INDEPENDENT STATES (CIS)

Current information (Y/N): Y

RCS size: MEDIUM

Orbital parameters

Period: 101.133 minutes

Inclination: 98.6795 deg

SMA: 7190.433 km

Apoapsis: 813.744 km

Periapsis: 810.852 km

RAAN: 247.4306 deg

Eccentricy: 0.0002011

Argument of periapsis: 272.8629 deg

Mean anomaly: 87.2319 deg

Mean motion: 14.23869427 rev/day

Mean motion (dot): 0.00000234 rev/day2

B* drag term: 0.00012133687 1/REarth

Two-line elements (TLE)

Creation date: Oct. 16, 2025, 2:37 a.m.

Reference frame: TEME

Reference center: EARTH

Epoch: Oct. 15, 2025, 3:41 p.m. UTC

TLE line 0: 0 STERKH 2

TLE line 1: 1 35866U 09049B 25288.65356180 .00000234 00000-0 12134-3 0 9992

TLE line 2: 2 35866 98.6795 247.4306 0002011 272.8629 87.2319 14.23869427834843

Live tracking on map

Real-time ground track for satellite STERKH 2.

In-orbit conjunctions

There are no conjunctions computed for STERKH 2, at the moment. Check back to stay up to date, as we update our databases every day.

Go to all conjunctions

Associated space launch

Russian meteorology satellite

STERKH 2 was lifted into orbit during the mission ‘Soyuz 2.1b/Fregat | Meteor-M 1’, on board a Soyuz 2.1b/Fregat space rocket.

The launch took place on Sept. 17, 2009, 3:55 p.m. from 31/6.

For more information about the launch, click the button.

Launch to space Soyuz 2.1b/Fregat | Meteor-M 1
Soyuz 2.1b/Fregat | Meteor-M 1

Agency: N/A

Status: Launch Successful

Launch date: Sept. 17, 2009, 3:55 p.m. UTC

Rocket: Soyuz 2.1b/Fregat

Launch pad: 31/6

Location: Baikonur Cosmodrome, Republic of Kazakhstan

...

Latest news about this satellite

There are no fresh news available about this satellite. Check back as we update our databases every day.


Newsletter sign-up

Weekly statistics, charts and insights to help you stay on top of the space industry.